Cape Girardeau, MO

1:19 AM CDT on April 26, 2018 (GMT -0500)
Cape Girardeau Regional

Weather History for KCGI - February, 2014

Change the Weather History Date:

Wednesday, February 26, 2014

  Actual Average Record
Temperature  
Mean Temperature 24 °F 41 °F  
Max Temperature 30 °F 52 °F 74 °F (1996)
Min Temperature 17 °F 31 °F 12 °F (1963)
Degree Days  
Heating Degree Days 41    
Month to date heating degree days 874  
Since 1 July heating degree days 3858  
Cooling Degree Days 0    
Month to date cooling degree days 0  
Year to date cooling degree days 0  
Moisture  
Dew Point 8 °F    
Average Humidity 53    
Maximum Humidity 74    
Minimum Humidity 32    
Precipitation  
Precipitation T in 0.12 in 1.66 in (2000)
Month to date precipitation 1.14 3.17  
Year to date precipitation 3.14 6.64  
Sea Level Pressure  
Sea Level Pressure 30.22 in    
Wind  
Wind Speed 11 mph (NNW)    
Max Wind Speed 29 mph    
Max Gust Speed 34 mph    
Visibility 10 miles    
Events Snow    
T = Trace of Precipitation, MM = Missing Value Source: NWS Daily Summary

Daily Weather History Graph

Daily Weather History Graph

Search for Another Location

Airport or City:

Astronomy

Feb. 26, 2014 Rise Set
Actual Time 6:33 AM CST 5:49 PM CST
Civil Twilight 6:07 AM CST 6:15 PM CST
Nautical Twilight 5:36 AM CST 6:45 PM CST
Astronomical Twilight 5:06 AM CST 7:16 PM CST
Moon 4:16 AM CST 3:06 PM CST
Length of Visible Light 12h 08m
Length of Day
11h 16m
Waning Crescent, 10% of the Moon is Illuminated
Feb 26
Waning Crescent
Mar 1
New
Mar 8
First Quarter
Mar 16
Full
Mar 23
Last Quarter

Hourly Weather History & Observations

Time (CST) Temp. Windchill Dew Point Humidity Pressure Visibility Wind Dir Wind Speed Gust Speed Precip Events Conditions
12:53 AM 25.0 °F 11.3 °F 17.1 °F 72% 30.27 in 10.0 mi North 18.4 mph 27.6 mph N/A   Mostly Cloudy
1:46 AM 23.0 °F 6.6 °F 16.0 °F 74% 30.29 in 7.0 mi North 25.3 mph 31.1 mph 0.00 in Snow Light Snow
1:53 AM 23.0 °F 6.9 °F 16.0 °F 74% 30.30 in 4.0 mi North 24.2 mph - 0.00 in Snow Light Snow
2:18 AM 23.0 °F 7.2 °F 15.1 °F 72% 30.28 in 9.0 mi North 23.0 mph 29.9 mph 0.00 in   Overcast
2:53 AM 21.9 °F 7.8 °F 8.1 °F 55% 30.29 in 10.0 mi North 17.3 mph 27.6 mph 0.00 in   Overcast
3:53 AM 19.9 °F 5.2 °F 10.9 °F 68% 30.31 in 10.0 mi North 17.3 mph - N/A   Overcast
4:53 AM 19.0 °F 3.6 °F 5.0 °F 54% 30.30 in 10.0 mi North 18.4 mph - N/A   Scattered Clouds
5:53 AM 19.0 °F 4.0 °F 5.0 °F 54% 30.32 in 10.0 mi North 17.3 mph - N/A   Mostly Cloudy
6:53 AM 18.0 °F 3.1 °F 5.0 °F 57% 30.32 in 10.0 mi North 16.1 mph - N/A   Partly Cloudy
7:53 AM 18.0 °F 3.1 °F 3.9 °F 54% 30.32 in 10.0 mi North 16.1 mph - N/A   Clear
8:53 AM 19.9 °F 5.2 °F 3.9 °F 50% 30.32 in 10.0 mi North 17.3 mph - N/A   Clear
9:53 AM 21.0 °F 9.3 °F 3.9 °F 48% 30.32 in 10.0 mi North 11.5 mph 20.7 mph N/A   Clear
10:53 AM 23.0 °F 13.1 °F 3.9 °F 44% 30.30 in 10.0 mi NNE 9.2 mph 18.4 mph N/A   Clear
11:17 AM 24.1 °F 12.5 °F 5.0 °F 44% 30.29 in 10.0 mi NNW 12.7 mph - N/A   Clear
11:53 AM 25.0 °F 14.2 °F 3.9 °F 41% 30.27 in 10.0 mi North 11.5 mph 19.6 mph N/A   Clear
12:53 PM 26.1 °F 16.2 °F 5.0 °F 41% 30.22 in 10.0 mi NNW 10.4 mph 17.3 mph N/A   Clear
1:53 PM 27.0 °F 16.7 °F -0.0 °F 31% 30.18 in 10.0 mi North 11.5 mph - N/A   Clear
2:53 PM 28.0 °F 22.8 °F 3.0 °F 34% 30.15 in 10.0 mi Variable 4.6 mph - N/A   Clear
3:53 PM 28.9 °F 23.9 °F 3.0 °F 33% 30.12 in 10.0 mi Variable 4.6 mph - N/A   Clear
4:53 PM 28.9 °F 25.2 °F 3.0 °F 33% 30.09 in 10.0 mi SSW 3.5 mph - N/A   Clear
5:53 PM 28.0 °F - 5.0 °F 38% 30.08 in 10.0 mi Calm Calm - N/A   Clear
6:53 PM 26.1 °F 21.9 °F 12.0 °F 55% 30.06 in 10.0 mi SSE 3.5 mph - N/A   Clear
8:53 PM 25.0 °F 17.1 °F 10.0 °F 53% 30.06 in 10.0 mi SSW 6.9 mph - N/A   Clear
9:53 PM 24.1 °F 16.0 °F 12.0 °F 60% 30.05 in 10.0 mi SSW 6.9 mph - N/A   Clear
10:53 PM 19.9 °F 13.4 °F 10.9 °F 68% 30.04 in 10.0 mi WSW 4.6 mph - N/A   Clear
11:53 PM 18.0 °F 9.8 °F 12.0 °F 78% 30.04 in 10.0 mi West 5.8 mph - N/A   Clear